EW9304 Weather Reports


Display with metric or nautical units.
time (UTC)temp
F
wind
direction
speed
MPH
gust
MPH
rain 1hr
in
rain 24hr
in
rain mn
in
humidity
%
barometer
mb
20260504000035 57 284 0.0 0.0 0.00 0.00 0.00 35 1000.8
20260503234517 59 284 0.0 0.0 0.00 0.00 0.00 33 1000.8
20260503233020 62 278 0.0 0.0 0.00 0.00 0.00 31 1000.6
20260503231516 63 301 0.0 1.0 0.00 0.00 0.00 29 1000.6
20260503230020 64 267 0.0 0.0 0.00 0.00 0.00 29 1000.6
20260503224515 64 18 0.0 0.0 0.00 0.00 0.00 28 1000.4
20260503223013 64 330 0.0 0.0 0.00 0.00 0.00 28 1000.4
20260503221512 64 305 0.0 1.0 0.00 0.00 0.00 28 1000.7
20260503220019 64 214 0.0 11.0 0.00 0.00 0.00 28 1000.6
20260503214522 64 276 0.0 2.0 0.00 0.00 0.00 30 1000.7
20260503213011 64 210 0.0 2.0 0.00 0.00 0.00 28 1000.7
20260503211512 63 293 0.0 1.0 0.00 0.00 0.00 28 1000.7
20260503210028 64 278 0.0 5.0 0.00 0.00 0.00 28 1000.6
20260503204511 64 342 0.0 4.0 0.00 0.00 0.00 27 1000.6
20260503203013 65 303 0.0 2.0 0.00 0.00 0.00 32 1000.7
20260503201506 64 244 0.0 0.0 0.00 0.00 0.00 31 1000.9
20260503200004 64 233 0.0 0.0 0.00 0.00 0.00 27 1001.3
20260503194503 64 314 0.0 6.0 0.00 0.00 0.00 28 1001.4
20260503193002 64 293 0.0 0.0 0.00 0.00 0.00 30 1001.5
20260503191608 64 294 0.0 1.0 0.00 0.00 0.00 30 1001.8
20260503190103 63 321 0.0 6.0 0.00 0.00 0.00 31 1002.0
20260503184600 62 296 0.0 1.0 0.00 0.00 0.00 33 1002.1
20260503183105 61 279 0.0 0.0 0.00 0.00 0.00 29 1002.3
20260503181553 61 252 0.0 7.0 0.00 0.00 0.00 32 1002.3
20260503180105 60 339 2.0 11.0 0.00 0.00 0.00 29 1002.6
20260503174551 60 189 2.0 13.0 0.00 0.00 0.00 32 1002.7
20260503173136 59 172 0.0 12.0 0.00 0.00 0.00 36 1002.8
20260503171548 59 118 0.0 7.0 0.00 0.00 0.00 38 1003.1
20260503120113 44 283 0.0 0.0 0.00 0.00 0.00 63 1004.5
20260503081532 39 277 0.0 0.0 0.00 0.00 0.00 73 1002.3
20260503071519 43 293 0.0 0.0 0.00 0.00 0.00 67 1001.8
20260503054555 43 304 0.0 0.0 0.00 0.00 0.00 70 1001.5
20260503053050 42 282 0.0 0.0 0.00 0.00 0.00 70 1001.5
20260503051549 42 286 0.0 0.0 0.00 0.00 0.00 72 1001.5
20260503050049 41 294 0.0 0.0 0.00 0.00 0.00 73 1001.5
20260503044553 41 302 0.0 0.0 0.00 0.00 0.00 74 1001.5
20260503043044 41 266 0.0 0.0 0.00 0.00 0.00 74 1001.5
20260503041544 42 224 0.0 0.0 0.00 0.00 0.00 72 1001.7
20260503040039 42 229 0.0 0.0 0.00 0.00 0.00 70 1001.6
20260503034539 43 342 0.0 0.0 0.00 0.00 0.00 68 1001.7
20260503033037 43 313 0.0 0.0 0.00 0.00 0.00 68 1001.8
20260503031547 44 170 0.0 0.0 0.00 0.00 0.00 66 1001.7
20260503030039 45 267 0.0 0.0 0.00 0.00 0.00 64 1001.7
20260503024536 46 80 0.0 0.0 0.00 0.00 0.00 61 1001.6
20260503023038 46 57 0.0 0.0 0.00 0.00 0.00 59 1001.7
20260503021539 47 297 0.0 3.0 0.00 0.00 0.00 58 1001.9
20260503020038 47 261 0.0 0.0 0.00 0.00 0.00 58 1001.7
20260503014537 48 328 0.0 0.0 0.00 0.00 0.00 56 1001.7
20260503013038 48 221 0.0 0.0 0.00 0.00 0.00 55 1001.6
20260503011534 49 226 0.0 0.0 0.00 0.00 0.00 54 1001.4
20260503010038 50 46 0.0 0.0 0.00 0.00 0.00 54 1001.1
20260503004532 50 257 0.0 0.0 0.00 0.00 0.00 54 1000.8
20260503003031 51 341 0.0 0.0 0.00 0.00 0.00 54 1000.5
20260503001531 51 37 0.0 0.0 0.00 0.00 0.00 52 1000.3